Time,TemperatureF,DewpointF,PressureIn,WindDirection,WindDirectionDegrees,WindSpeedMPH,WindSpeedGustMPH,Humidity,HourlyPrecipIn,Conditions,Clouds,dailyrainin,SoftwareType,DateUTC
2013-06-11 00:00:00,68.3,68.3,29.84,WSW,256,0.0,16.0,100,0.09,,,0.00,Wunderground v.1.15,2013-06-11 04:00:00,
2013-06-11 00:05:00,68.2,68.2,29.83,WSW,256,0.0,16.0,100,0.08,,,0.01,Wunderground v.1.15,2013-06-11 04:05:00,
2013-06-11 00:10:00,68.1,68.1,29.83,WSW,243,0.0,16.0,100,0.09,,,0.02,Wunderground v.1.15,2013-06-11 04:10:00,
2013-06-11 00:15:00,68.1,68.1,29.83,WSW,242,0.0,16.0,100,0.09,,,0.03,Wunderground v.1.15,2013-06-11 04:15:00,
2013-06-11 00:20:00,68.0,68.0,29.83,WSW,243,0.0,16.0,100,0.12,,,0.04,Wunderground v.1.15,2013-06-11 04:20:00,
2013-06-11 00:25:00,68.0,68.0,29.83,WSW,243,1.0,16.0,100,0.10,,,0.04,Wunderground v.1.15,2013-06-11 04:25:00,
2013-06-11 00:30:00,68.0,68.0,29.83,WSW,247,1.0,16.0,100,0.09,,,0.05,Wunderground v.1.15,2013-06-11 04:30:00,
2013-06-11 00:40:00,67.9,67.9,29.83,WSW,246,1.0,1.0,100,0.09,,,0.07,Wunderground v.1.15,2013-06-11 04:40:00,
2013-06-11 00:45:00,67.8,67.8,29.84,West,273,1.0,5.0,100,0.11,,,0.08,Wunderground v.1.15,2013-06-11 04:45:00,
2013-06-11 00:50:00,67.9,67.9,29.84,WSW,239,2.0,16.0,100,0.08,,,0.08,Wunderground v.1.15,2013-06-11 04:50:00,
2013-06-11 00:55:00,67.8,67.8,29.83,SW,234,2.0,16.0,100,0.08,,,0.09,Wunderground v.1.15,2013-06-11 04:55:00,
2013-06-11 01:00:00,67.8,67.8,29.83,West,263,2.0,16.0,100,0.11,,,0.10,Wunderground v.1.15,2013-06-11 05:00:00,
2013-06-11 01:10:00,67.9,67.9,29.83,WSW,246,3.0,16.0,100,0.12,,,0.12,Wunderground v.1.15,2013-06-11 05:10:00,
2013-06-11 01:15:00,67.9,67.9,29.83,West,267,3.0,16.0,100,0.09,,,0.12,Wunderground v.1.15,2013-06-11 05:15:00,
2013-06-11 01:20:00,67.8,67.8,29.83,WSW,255,2.0,2.0,100,0.08,,,0.13,Wunderground v.1.15,2013-06-11 05:20:00,
2013-06-11 01:25:00,67.8,67.8,29.82,WSW,241,1.0,16.0,100,0.10,,,0.14,Wunderground v.1.15,2013-06-11 05:25:00,
2013-06-11 01:35:00,67.7,67.7,29.82,WSW,241,0.0,16.0,100,0.08,,,0.15,Wunderground v.1.15,2013-06-11 05:35:00,
2013-06-11 01:40:00,67.7,67.7,29.83,WSW,241,0.0,16.0,100,0.10,,,0.16,Wunderground v.1.15,2013-06-11 05:40:00,
2013-06-11 01:45:00,67.6,67.6,29.82,WSW,241,0.0,16.0,100,0.08,,,0.17,Wunderground v.1.15,2013-06-11 05:45:00,
2013-06-11 01:50:00,67.7,67.7,29.82,WSW,241,1.0,16.0,100,0.10,,,0.18,Wunderground v.1.15,2013-06-11 05:50:00,
2013-06-11 01:55:00,67.7,67.7,29.82,West,275,2.0,16.0,100,0.10,,,0.18,Wunderground v.1.15,2013-06-11 05:55:00,
2013-06-11 02:05:00,67.7,67.7,29.82,WSW,243,2.0,16.0,100,0.09,,,0.20,Wunderground v.1.15,2013-06-11 06:05:00,
2013-06-11 02:10:00,67.7,67.7,29.82,West,263,1.0,1.0,100,0.09,,,0.20,Wunderground v.1.15,2013-06-11 06:10:00,
2013-06-11 02:15:00,67.6,67.6,29.82,West,263,1.0,3.0,100,0.07,,,0.21,Wunderground v.1.15,2013-06-11 06:15:00,
2013-06-11 02:20:00,67.6,67.6,29.82,West,263,1.0,16.0,100,0.09,,,0.22,Wunderground v.1.15,2013-06-11 06:20:00,
2013-06-11 02:30:00,67.5,67.5,29.82,WSW,240,1.0,16.0,100,0.07,,,0.23,Wunderground v.1.15,2013-06-11 06:30:00,
2013-06-11 02:35:00,67.5,67.5,29.81,WSW,240,1.0,16.0,100,0.07,,,0.23,Wunderground v.1.15,2013-06-11 06:35:00,
2013-06-11 02:40:00,67.5,67.5,29.81,WSW,240,1.0,16.0,100,0.09,,,0.24,Wunderground v.1.15,2013-06-11 06:40:00,
2013-06-11 02:45:00,67.4,67.4,29.82,WSW,240,1.0,16.0,100,0.06,,,0.25,Wunderground v.1.15,2013-06-11 06:45:00,
2013-06-11 02:50:00,67.4,67.4,29.82,WSW,240,1.0,16.0,100,0.06,,,0.25,Wunderground v.1.15,2013-06-11 06:50:00,
2013-06-11 03:00:00,67.4,67.4,29.81,WSW,240,1.0,1.0,100,0.07,,,0.26,Wunderground v.1.15,2013-06-11 07:00:00,
2013-06-11 03:05:00,67.3,67.3,29.81,WSW,240,0.0,16.0,100,0.06,,,0.27,Wunderground v.1.15,2013-06-11 07:05:00,
2013-06-11 03:10:00,67.2,67.2,29.82,WSW,240,0.0,16.0,100,0.08,,,0.28,Wunderground v.1.15,2013-06-11 07:10:00,
2013-06-11 03:15:00,67.2,67.2,29.81,WSW,240,0.0,16.0,100,0.08,,,0.28,Wunderground v.1.15,2013-06-11 07:15:00,
2013-06-11 03:25:00,67.1,67.1,29.81,WSW,240,0.0,16.0,100,0.05,,,0.29,Wunderground v.1.15,2013-06-11 07:25:00,
2013-06-11 03:30:00,67.1,67.1,29.81,WSW,240,0.0,16.0,100,0.08,,,0.30,Wunderground v.1.15,2013-06-11 07:30:00,
2013-06-11 03:35:00,67.0,67.0,29.81,WSW,240,0.0,16.0,100,0.08,,,0.30,Wunderground v.1.15,2013-06-11 07:35:00,
2013-06-11 03:40:00,67.0,67.0,29.81,WSW,240,0.0,16.0,100,0.05,,,0.31,Wunderground v.1.15,2013-06-11 07:40:00,
2013-06-11 03:45:00,67.0,67.0,29.81,WSW,240,1.0,16.0,100,0.05,,,0.31,Wunderground v.1.15,2013-06-11 07:45:00,
2013-06-11 03:55:00,67.0,67.0,29.81,WSW,240,1.0,16.0,100,0.06,,,0.32,Wunderground v.1.15,2013-06-11 07:55:00,
2013-06-11 04:00:00,67.0,67.0,29.81,WSW,240,0.0,16.0,100,0.05,,,0.32,Wunderground v.1.15,2013-06-11 08:00:00,
2013-06-11 04:05:00,66.8,66.8,29.81,WSW,240,0.0,16.0,100,0.05,,,0.33,Wunderground v.1.15,2013-06-11 08:05:00,
2013-06-11 04:10:00,66.8,66.8,29.81,WSW,240,0.0,16.0,100,0.05,,,0.33,Wunderground v.1.15,2013-06-11 08:10:00,
2013-06-11 04:20:00,66.7,66.7,29.81,WSW,240,0.0,16.0,100,0.06,,,0.34,Wunderground v.1.15,2013-06-11 08:20:00,
2013-06-11 04:25:00,66.6,66.6,29.81,WSW,240,0.0,16.0,100,0.05,,,0.35,Wunderground v.1.15,2013-06-11 08:25:00,
2013-06-11 04:30:00,66.6,66.6,29.82,WSW,240,1.0,1.0,100,0.05,,,0.35,Wunderground v.1.15,2013-06-11 08:30:00,
2013-06-11 04:35:00,66.6,66.6,29.82,WSW,240,1.0,16.0,100,0.06,,,0.36,Wunderground v.1.15,2013-06-11 08:35:00,
2013-06-11 04:40:00,66.6,66.6,29.82,SW,234,1.0,1.0,100,0.06,,,0.36,Wunderground v.1.15,2013-06-11 08:40:00,
2013-06-11 04:50:00,66.7,66.7,29.82,SW,230,3.0,3.0,100,0.04,,,0.37,Wunderground v.1.15,2013-06-11 08:50:00,
2013-06-11 04:55:00,66.8,66.8,29.82,SW,236,3.0,16.0,100,0.04,,,0.37,Wunderground v.1.15,2013-06-11 08:55:00,
2013-06-11 05:00:00,66.8,66.8,29.82,SW,236,2.0,2.0,100,0.05,,,0.38,Wunderground v.1.15,2013-06-11 09:00:00,
2013-06-11 05:05:00,66.8,66.8,29.82,SW,236,2.0,16.0,100,0.05,,,0.38,Wunderground v.1.15,2013-06-11 09:05:00,
2013-06-11 05:10:00,66.7,66.7,29.82,SW,236,1.0,16.0,100,0.05,,,0.38,Wunderground v.1.15,2013-06-11 09:10:00,
2013-06-11 05:20:00,66.6,66.6,29.82,WSW,240,1.0,1.0,100,0.04,,,0.39,Wunderground v.1.15,2013-06-11 09:20:00,
2013-06-11 05:25:00,66.6,66.6,29.82,WSW,240,1.0,2.0,100,0.04,,,0.39,Wunderground v.1.15,2013-06-11 09:25:00,
2013-06-11 05:30:00,66.6,66.6,29.82,West,269,1.0,16.0,100,0.05,,,0.40,Wunderground v.1.15,2013-06-11 09:30:00,
2013-06-11 05:35:00,66.6,66.6,29.82,WSW,238,1.0,16.0,100,0.05,,,0.40,Wunderground v.1.15,2013-06-11 09:35:00,
2013-06-11 05:45:00,66.7,66.7,29.82,WSW,248,2.0,16.0,100,0.04,,,0.41,Wunderground v.1.15,2013-06-11 09:45:00,
2013-06-11 05:50:00,66.7,66.7,29.82,West,279,2.0,16.0,100,0.04,,,0.41,Wunderground v.1.15,2013-06-11 09:50:00,
2013-06-11 05:55:00,66.7,66.7,29.83,West,279,1.0,16.0,100,0.04,,,0.41,Wunderground v.1.15,2013-06-11 09:55:00,
2013-06-11 06:00:00,66.8,66.8,29.82,WSW,249,2.0,2.0,100,0.04,,,0.42,Wunderground v.1.15,2013-06-11 10:00:00,
2013-06-11 06:05:00,66.8,66.8,29.83,WSW,255,3.0,5.0,100,0.04,,,0.42,Wunderground v.1.15,2013-06-11 10:05:00,
2013-06-11 06:15:00,67.0,67.0,29.83,WSW,240,3.0,16.0,100,0.00,,,0.43,Wunderground v.1.15,2013-06-11 10:15:00,
2013-06-11 06:20:00,67.1,67.1,29.83,WSW,240,2.0,16.0,100,0.00,,,0.43,Wunderground v.1.15,2013-06-11 10:20:00,
2013-06-11 06:25:00,67.1,67.1,29.83,WSW,240,2.0,16.0,100,0.00,,,0.43,Wunderground v.1.15,2013-06-11 10:25:00,
2013-06-11 06:30:00,67.2,67.2,29.83,WSW,242,1.0,1.0,100,0.05,,,0.44,Wunderground v.1.15,2013-06-11 10:30:00,
2013-06-11 06:40:00,67.2,67.2,29.83,WSW,241,0.0,16.0,100,0.04,,,0.44,Wunderground v.1.15,2013-06-11 10:40:00,
2013-06-11 06:45:00,67.2,67.2,29.83,WSW,242,0.0,16.0,100,0.00,,,0.44,Wunderground v.1.15,2013-06-11 10:45:00,
2013-06-11 06:50:00,67.2,67.2,29.83,WSW,241,0.0,16.0,100,0.00,,,0.45,Wunderground v.1.15,2013-06-11 10:50:00,
2013-06-11 06:55:00,67.2,67.2,29.83,WSW,242,1.0,16.0,100,0.00,,,0.45,Wunderground v.1.15,2013-06-11 10:55:00,
2013-06-11 07:00:00,67.2,67.2,29.84,WSW,242,1.0,16.0,100,0.00,,,0.45,Wunderground v.1.15,2013-06-11 11:00:00,
2013-06-11 07:10:00,67.3,67.3,29.83,West,264,2.0,16.0,100,0.00,,,0.46,Wunderground v.1.15,2013-06-11 11:10:00,
2013-06-11 07:15:00,67.3,67.3,29.83,West,264,1.0,16.0,100,0.00,,,0.46,Wunderground v.1.15,2013-06-11 11:15:00,
2013-06-11 07:20:00,67.4,67.4,29.83,WSW,237,0.0,16.0,100,0.00,,,0.46,Wunderground v.1.15,2013-06-11 11:20:00,
2013-06-11 07:25:00,67.4,67.4,29.83,SW,218,1.0,16.0,100,0.00,,,0.46,Wunderground v.1.15,2013-06-11 11:25:00,
2013-06-11 07:30:00,67.5,67.5,29.83,SW,218,1.0,16.0,100,0.00,,,0.47,Wunderground v.1.15,2013-06-11 11:30:00,
2013-06-11 07:40:00,67.7,67.7,29.84,SW,218,1.0,1.0,100,0.00,,,0.47,Wunderground v.1.15,2013-06-11 11:40:00,
2013-06-11 07:45:00,67.7,67.7,29.84,WSW,241,2.0,2.0,100,0.00,,,0.47,Wunderground v.1.15,2013-06-11 11:45:00,
2013-06-11 07:50:00,67.9,67.9,29.84,WSW,240,2.0,16.0,100,0.00,,,0.47,Wunderground v.1.15,2013-06-11 11:50:00,
2013-06-11 07:55:00,68.1,68.1,29.84,WSW,241,4.0,16.0,100,0.00,,,0.48,Wunderground v.1.15,2013-06-11 11:55:00,
2013-06-11 08:05:00,68.4,68.1,29.84,West,281,4.0,16.0,99,0.00,,,0.48,Wunderground v.1.15,2013-06-11 12:05:00,
2013-06-11 08:10:00,68.6,68.3,29.84,SW,224,4.0,4.0,99,0.00,,,0.48,Wunderground v.1.15,2013-06-11 12:10:00,
2013-06-11 08:15:00,68.8,68.5,29.84,WSW,242,3.0,5.0,99,0.00,,,0.48,Wunderground v.1.15,2013-06-11 12:15:00,
2013-06-11 08:20:00,69.0,68.4,29.84,WSW,237,3.0,3.0,98,0.00,,,0.49,Wunderground v.1.15,2013-06-11 12:20:00,
2013-06-11 08:30:00,69.4,68.8,29.84,West,259,1.0,16.0,98,0.00,,,0.49,Wunderground v.1.15,2013-06-11 12:30:00,
2013-06-11 08:35:00,69.5,68.6,29.84,WSW,241,2.0,16.0,97,0.00,,,0.49,Wunderground v.1.15,2013-06-11 12:35:00,
2013-06-11 08:40:00,69.9,69.0,29.84,WSW,241,2.0,2.0,97,0.00,,,0.49,Wunderground v.1.15,2013-06-11 12:40:00,
2013-06-11 08:45:00,70.4,69.2,29.84,West,269,2.0,16.0,96,0.00,,,0.49,Wunderground v.1.15,2013-06-11 12:45:00,
2013-06-11 08:50:00,70.9,69.4,29.84,West,268,2.0,2.0,95,0.00,,,0.50,Wunderground v.1.15,2013-06-11 12:50:00,
2013-06-11 09:00:00,72.0,70.5,29.83,SW,229,0.0,16.0,95,0.00,,,0.50,Wunderground v.1.15,2013-06-11 13:00:00,
2013-06-11 09:05:00,72.5,70.4,29.84,South,182,0.0,16.0,93,0.00,,,0.50,Wunderground v.1.15,2013-06-11 13:05:00,
2013-06-11 09:10:00,73.0,70.2,29.83,West,261,1.0,16.0,91,0.00,,,0.50,Wunderground v.1.15,2013-06-11 13:10:00,
2013-06-11 09:15:00,73.4,70.0,29.84,West,267,2.0,16.0,89,0.00,,,0.50,Wunderground v.1.15,2013-06-11 13:15:00,
2013-06-11 09:20:00,73.8,70.0,29.83,West,269,2.0,2.0,88,0.00,,,0.50,Wunderground v.1.15,2013-06-11 13:20:00,
2013-06-11 09:30:00,74.6,70.1,29.83,WSW,244,2.0,2.0,86,0.00,,,0.51,Wunderground v.1.15,2013-06-11 13:30:00,
2013-06-11 09:35:00,75.1,69.6,29.83,West,259,2.0,3.0,83,0.00,,,0.51,Wunderground v.1.15,2013-06-11 13:35:00,
2013-06-11 09:40:00,75.4,69.9,29.83,SW,229,2.0,16.0,83,0.00,,,0.51,Wunderground v.1.15,2013-06-11 13:40:00,
2013-06-11 09:45:00,75.8,70.3,29.82,West,272,2.0,16.0,83,0.00,,,0.51,Wunderground v.1.15,2013-06-11 13:45:00,
2013-06-11 09:50:00,76.4,68.3,29.82,WSW,255,3.0,16.0,76,0.00,,,0.51,Wunderground v.1.15,2013-06-11 13:50:00,
2013-06-11 10:00:00,76.9,68.0,29.82,WNW,300,3.0,3.0,74,0.00,,,0.51,Wunderground v.1.15,2013-06-11 14:00:00,
2013-06-11 10:05:00,77.1,67.4,29.82,WNW,282,2.0,4.0,72,0.00,,,0.51,Wunderground v.1.15,2013-06-11 14:05:00,
2013-06-11 10:10:00,77.1,67.8,29.82,WSW,240,3.0,16.0,73,0.00,,,0.51,Wunderground v.1.15,2013-06-11 14:10:00,
2013-06-11 10:15:00,77.3,68.0,29.82,West,272,3.0,16.0,73,0.00,,,0.51,Wunderground v.1.15,2013-06-11 14:15:00,
2013-06-11 10:20:00,77.6,68.3,29.82,SW,219,3.0,16.0,73,0.00,,,0.51,Wunderground v.1.15,2013-06-11 14:20:00,
2013-06-11 10:30:00,77.8,67.6,29.82,SW,234,6.0,6.0,71,0.00,,,0.51,Wunderground v.1.15,2013-06-11 14:30:00,
2013-06-11 10:35:00,78.0,68.2,29.82,SSW,207,5.0,8.0,72,0.00,,,0.51,Wunderground v.1.15,2013-06-11 14:35:00,
2013-06-11 10:40:00,78.2,68.4,29.82,West,269,5.0,5.0,72,0.00,,,0.52,Wunderground v.1.15,2013-06-11 14:40:00,
2013-06-11 10:50:00,79.0,68.8,29.82,West,260,3.0,16.0,71,0.00,,,0.52,Wunderground v.1.15,2013-06-11 14:50:00,
2013-06-11 10:55:00,78.9,68.7,29.82,WNW,293,4.0,16.0,71,0.00,,,0.52,Wunderground v.1.15,2013-06-11 14:55:00,
2013-06-11 11:00:00,79.3,68.2,29.82,WSW,250,5.0,5.0,69,0.00,,,0.52,Wunderground v.1.15,2013-06-11 15:00:00,
2013-06-11 11:05:00,79.1,68.1,29.82,WNW,299,5.0,6.0,69,0.00,,,0.52,Wunderground v.1.15,2013-06-11 15:05:00,
2013-06-11 11:10:00,79.1,67.6,29.82,NW,304,5.0,16.0,68,0.00,,,0.52,Wunderground v.1.15,2013-06-11 15:10:00,
2013-06-11 11:20:00,79.4,67.9,29.82,WNW,302,5.0,5.0,68,0.00,,,0.52,Wunderground v.1.15,2013-06-11 15:20:00,
2013-06-11 11:25:00,79.0,67.5,29.82,WNW,299,5.0,16.0,68,0.00,,,0.52,Wunderground v.1.15,2013-06-11 15:25:00,
2013-06-11 11:30:00,78.8,67.3,29.82,WNW,300,4.0,4.0,68,0.00,,,0.52,Wunderground v.1.15,2013-06-11 15:30:00,
2013-06-11 11:35:00,79.1,68.1,29.82,West,266,3.0,16.0,69,0.00,,,0.52,Wunderground v.1.15,2013-06-11 15:35:00,
2013-06-11 11:40:00,79.1,67.6,29.83,WNW,294,3.0,3.0,68,0.00,,,0.52,Wunderground v.1.15,2013-06-11 15:40:00,
2013-06-11 11:50:00,79.3,68.2,29.82,WNW,291,2.0,2.0,69,0.00,,,0.52,Wunderground v.1.15,2013-06-11 15:50:00,
2013-06-11 11:55:00,79.6,68.5,29.82,WNW,301,2.0,16.0,69,0.00,,,0.52,Wunderground v.1.15,2013-06-11 15:55:00,
2013-06-11 12:00:00,79.6,68.5,29.82,WNW,286,2.0,16.0,69,0.00,,,0.52,Wunderground v.1.15,2013-06-11 16:00:00,
2013-06-11 12:05:00,79.6,68.1,29.82,WNW,294,3.0,16.0,68,0.00,,,0.52,Wunderground v.1.15,2013-06-11 16:05:00,
2013-06-11 12:10:00,79.1,67.6,29.82,NW,317,4.0,16.0,68,0.00,,,0.52,Wunderground v.1.15,2013-06-11 16:10:00,
2013-06-11 12:20:00,79.8,69.1,29.82,WNW,291,4.0,16.0,70,0.00,,,0.52,Wunderground v.1.15,2013-06-11 16:20:00,
2013-06-11 12:25:00,80.7,69.2,29.82,WSW,245,2.0,16.0,68,0.00,,,0.52,Wunderground v.1.15,2013-06-11 16:25:00,
2013-06-11 12:30:00,80.7,69.6,29.82,NW,315,2.0,2.0,69,0.00,,,0.52,Wunderground v.1.15,2013-06-11 16:30:00,
2013-06-11 12:35:00,80.9,68.9,29.82,WNW,302,2.0,16.0,67,0.00,,,0.52,Wunderground v.1.15,2013-06-11 16:35:00,
2013-06-11 12:40:00,80.3,67.9,29.82,WNW,302,3.0,16.0,66,0.00,,,0.52,Wunderground v.1.15,2013-06-11 16:40:00,
2013-06-11 12:50:00,79.7,68.2,29.82,NW,313,3.0,16.0,68,0.00,,,0.52,Wunderground v.1.15,2013-06-11 16:50:00,
2013-06-11 12:55:00,79.3,67.8,29.82,WNW,286,4.0,16.0,68,0.00,,,0.52,Wunderground v.1.15,2013-06-11 16:55:00,
2013-06-11 13:00:00,79.5,68.4,29.82,WNW,296,4.0,16.0,69,0.00,,,0.52,Wunderground v.1.15,2013-06-11 17:00:00,
2013-06-11 13:10:00,79.5,68.9,29.82,WSW,258,3.0,3.0,70,0.00,,,0.52,Wunderground v.1.15,2013-06-11 17:10:00,
2013-06-11 13:15:00,80.4,69.3,29.82,WNW,298,2.0,4.0,69,0.00,,,0.52,Wunderground v.1.15,2013-06-11 17:15:00,
2013-06-11 13:20:00,80.1,68.6,29.82,NW,306,2.0,16.0,68,0.00,,,0.52,Wunderground v.1.15,2013-06-11 17:20:00,
2013-06-11 13:25:00,79.6,68.1,29.82,West,266,4.0,16.0,68,0.00,,,0.52,Wunderground v.1.15,2013-06-11 17:25:00,
2013-06-11 13:30:00,79.6,67.7,29.81,WNW,298,4.0,4.0,67,0.00,,,0.52,Wunderground v.1.15,2013-06-11 17:30:00,
2013-06-11 13:40:00,79.4,67.9,29.81,WSW,254,3.0,16.0,68,0.00,,,0.52,Wunderground v.1.15,2013-06-11 17:40:00,
2013-06-11 13:45:00,80.2,68.7,29.81,WNW,300,3.0,16.0,68,0.00,,,0.52,Wunderground v.1.15,2013-06-11 17:45:00,
2013-06-11 13:50:00,80.5,68.1,29.81,WNW,300,4.0,16.0,66,0.00,,,0.52,Wunderground v.1.15,2013-06-11 17:50:00,
2013-06-11 13:55:00,80.6,68.6,29.81,West,269,4.0,16.0,67,0.00,,,0.52,Wunderground v.1.15,2013-06-11 17:55:00,
2013-06-11 14:00:00,81.1,68.7,29.81,WNW,290,3.0,16.0,66,0.00,,,0.52,Wunderground v.1.15,2013-06-11 18:00:00,
2013-06-11 14:10:00,81.2,69.2,29.81,NW,304,3.0,3.0,67,0.00,,,0.52,Wunderground v.1.15,2013-06-11 18:10:00,
2013-06-11 14:15:00,81.5,69.0,29.81,WNW,290,2.0,16.0,66,0.00,,,0.52,Wunderground v.1.15,2013-06-11 18:15:00,
2013-06-11 14:20:00,82.0,69.1,29.81,WNW,282,4.0,4.0,65,0.00,,,0.52,Wunderground v.1.15,2013-06-11 18:20:00,
2013-06-11 14:25:00,82.0,68.6,29.81,WSW,252,4.0,8.0,64,0.00,,,0.52,Wunderground v.1.15,2013-06-11 18:25:00,
2013-06-11 14:30:00,81.6,68.7,29.81,WSW,257,3.0,3.0,65,0.00,,,0.52,Wunderground v.1.15,2013-06-11 18:30:00,
2013-06-11 14:40:00,80.9,68.5,29.81,WSW,250,4.0,16.0,66,0.00,,,0.52,Wunderground v.1.15,2013-06-11 18:40:00,
2013-06-11 14:45:00,80.6,68.2,29.81,West,269,3.0,16.0,66,0.00,,,0.52,Wunderground v.1.15,2013-06-11 18:45:00,
2013-06-11 14:50:00,80.4,68.9,29.81,West,281,3.0,16.0,68,0.00,,,0.52,Wunderground v.1.15,2013-06-11 18:50:00,
2013-06-11 14:55:00,80.3,68.3,29.80,West,276,2.0,16.0,67,0.00,,,0.52,Wunderground v.1.15,2013-06-11 18:55:00,
2013-06-11 15:00:00,81.0,69.4,29.80,West,272,3.0,3.0,68,0.00,,,0.52,Wunderground v.1.15,2013-06-11 19:00:00,
2013-06-11 15:10:00,83.2,70.7,29.80,West,275,2.0,2.0,66,0.00,,,0.52,Wunderground v.1.15,2013-06-11 19:10:00,
2013-06-11 15:15:00,83.8,70.3,29.80,SSW,207,2.0,5.0,64,0.00,,,0.52,Wunderground v.1.15,2013-06-11 19:15:00,
2013-06-11 15:20:00,84.0,70.0,29.80,West,263,3.0,3.0,63,0.00,,,0.52,Wunderground v.1.15,2013-06-11 19:20:00,
2013-06-11 15:30:00,82.4,69.0,29.80,SW,234,4.0,4.0,64,0.00,,,0.52,Wunderground v.1.15,2013-06-11 19:30:00,
2013-06-11 15:35:00,82.1,69.6,29.80,WNW,298,4.0,16.0,66,0.00,,,0.52,Wunderground v.1.15,2013-06-11 19:35:00,
2013-06-11 15:40:00,81.4,69.4,29.80,NW,306,3.0,3.0,67,0.00,,,0.52,Wunderground v.1.15,2013-06-11 19:40:00,
2013-06-11 15:45:00,81.1,69.1,29.80,West,259,4.0,4.0,67,0.00,,,0.52,Wunderground v.1.15,2013-06-11 19:45:00,
2013-06-11 15:50:00,81.8,68.9,29.80,West,267,3.0,16.0,65,0.00,,,0.52,Wunderground v.1.15,2013-06-11 19:50:00,
2013-06-11 16:00:00,82.6,69.2,29.80,NW,309,5.0,5.0,64,0.00,,,0.52,Wunderground v.1.15,2013-06-11 20:00:00,
2013-06-11 16:05:00,82.3,69.4,29.80,West,275,5.0,16.0,65,0.00,,,0.52,Wunderground v.1.15,2013-06-11 20:05:00,
2013-06-11 16:10:00,83.2,69.8,29.79,WSW,241,3.0,16.0,64,0.00,,,0.52,Wunderground v.1.15,2013-06-11 20:10:00,
2013-06-11 16:15:00,82.8,69.4,29.79,West,265,3.0,16.0,64,0.00,,,0.52,Wunderground v.1.15,2013-06-11 20:15:00,
2013-06-11 16:20:00,82.6,69.2,29.79,West,281,5.0,5.0,64,0.00,,,0.52,Wunderground v.1.15,2013-06-11 20:20:00,
2013-06-11 16:30:00,82.4,69.4,29.79,West,269,3.0,3.0,65,0.00,,,0.52,Wunderground v.1.15,2013-06-11 20:30:00,
2013-06-11 16:35:00,82.3,68.9,29.79,WNW,288,3.0,5.0,64,0.00,,,0.52,Wunderground v.1.15,2013-06-11 20:35:00,
2013-06-11 16:40:00,81.6,68.7,29.79,WNW,295,3.0,16.0,65,0.00,,,0.52,Wunderground v.1.15,2013-06-11 20:40:00,
2013-06-11 16:45:00,81.4,68.9,29.79,WSW,244,3.0,16.0,66,0.00,,,0.52,Wunderground v.1.15,2013-06-11 20:45:00,
2013-06-11 16:50:00,81.4,68.5,29.79,WNW,283,4.0,16.0,65,0.00,,,0.52,Wunderground v.1.15,2013-06-11 20:50:00,
2013-06-11 17:00:00,81.2,68.8,29.79,NW,325,4.0,16.0,66,0.00,,,0.52,Wunderground v.1.15,2013-06-11 21:00:00,
2013-06-11 17:05:00,81.1,68.7,29.79,WNW,292,4.0,16.0,66,0.00,,,0.52,Wunderground v.1.15,2013-06-11 21:05:00,
2013-06-11 17:10:00,81.3,69.3,29.79,WNW,285,3.0,3.0,67,0.00,,,0.52,Wunderground v.1.15,2013-06-11 21:10:00,
2013-06-11 17:15:00,81.8,69.8,29.80,WNW,298,2.0,16.0,67,0.00,,,0.52,Wunderground v.1.15,2013-06-11 21:15:00,
2013-06-11 17:25:00,82.0,68.6,29.80,NW,304,4.0,16.0,64,0.00,,,0.52,Wunderground v.1.15,2013-06-11 21:25:00,
2013-06-11 17:30:00,81.3,68.9,29.80,WNW,289,4.0,4.0,66,0.00,,,0.52,Wunderground v.1.15,2013-06-11 21:30:00,
2013-06-11 17:35:00,81.1,68.7,29.80,West,276,3.0,16.0,66,0.00,,,0.52,Wunderground v.1.15,2013-06-11 21:35:00,
2013-06-11 17:40:00,80.9,68.5,29.79,NW,316,2.0,16.0,66,0.00,,,0.52,Wunderground v.1.15,2013-06-11 21:40:00,
2013-06-11 17:50:00,80.3,68.3,29.79,West,280,5.0,5.0,67,0.00,,,0.52,Wunderground v.1.15,2013-06-11 21:50:00,
2013-06-11 17:55:00,80.2,68.2,29.79,WNW,284,5.0,14.0,67,0.00,,,0.52,Wunderground v.1.15,2013-06-11 21:55:00,
2013-06-11 18:00:00,80.1,68.2,29.79,WNW,296,4.0,16.0,67,0.00,,,0.52,Wunderground v.1.15,2013-06-11 22:00:00,
2013-06-11 18:05:00,80.3,68.3,29.80,WSW,243,4.0,16.0,67,0.00,,,0.52,Wunderground v.1.15,2013-06-11 22:05:00,
2013-06-11 18:10:00,80.3,68.3,29.80,WNW,292,3.0,3.0,67,0.00,,,0.52,Wunderground v.1.15,2013-06-11 22:10:00,
2013-06-11 18:20:00,80.0,68.1,29.79,NNW,330,5.0,16.0,67,0.00,,,0.52,Wunderground v.1.15,2013-06-11 22:20:00,
2013-06-11 18:25:00,79.9,68.0,29.79,NW,313,6.0,16.0,67,0.00,,,0.52,Wunderground v.1.15,2013-06-11 22:25:00,
2013-06-11 18:30:00,79.6,67.7,29.79,WNW,302,6.0,6.0,67,0.00,,,0.52,Wunderground v.1.15,2013-06-11 22:30:00,
2013-06-11 18:35:00,80.0,68.5,29.80,West,281,4.0,16.0,68,0.00,,,0.52,Wunderground v.1.15,2013-06-11 22:35:00,
2013-06-11 18:40:00,80.8,68.8,29.80,WNW,302,2.0,2.0,67,0.00,,,0.52,Wunderground v.1.15,2013-06-11 22:40:00,
2013-06-11 18:50:00,81.1,69.5,29.80,West,262,2.0,2.0,68,0.00,,,0.52,Wunderground v.1.15,2013-06-11 22:50:00,
2013-06-11 18:55:00,81.3,69.7,29.80,West,280,2.0,16.0,68,0.00,,,0.52,Wunderground v.1.15,2013-06-11 22:55:00,
2013-06-11 19:00:00,81.2,69.2,29.81,West,273,3.0,3.0,67,0.00,,,0.52,Wunderground v.1.15,2013-06-11 23:00:00,
2013-06-11 19:05:00,81.1,69.1,29.81,WNW,282,3.0,16.0,67,0.00,,,0.52,Wunderground v.1.15,2013-06-11 23:05:00,
2013-06-11 19:10:00,80.8,68.8,29.80,WNW,294,3.0,16.0,67,0.00,,,0.52,Wunderground v.1.15,2013-06-11 23:10:00,
2013-06-11 19:20:00,80.5,68.5,29.82,West,277,4.0,16.0,67,0.00,,,0.52,Wunderground v.1.15,2013-06-11 23:20:00,
2013-06-11 19:25:00,80.1,67.7,29.82,West,264,5.0,16.0,66,0.00,,,0.52,Wunderground v.1.15,2013-06-11 23:25:00,
2013-06-11 19:30:00,79.6,67.2,29.81,WNW,298,6.0,16.0,66,0.00,,,0.52,Wunderground v.1.15,2013-06-11 23:30:00,
2013-06-11 19:35:00,79.1,67.2,29.82,West,276,6.0,16.0,67,0.00,,,0.52,Wunderground v.1.15,2013-06-11 23:35:00,
2013-06-11 19:45:00,78.7,67.2,29.82,SW,236,4.0,16.0,68,0.00,,,0.52,Wunderground v.1.15,2013-06-11 23:45:00,
2013-06-11 19:50:00,78.7,67.2,29.82,WNW,298,4.0,4.0,68,0.00,,,0.52,Wunderground v.1.15,2013-06-11 23:50:00,
2013-06-11 19:55:00,78.5,67.5,29.82,WNW,288,3.0,16.0,69,0.00,,,0.52,Wunderground v.1.15,2013-06-11 23:55:00,
2013-06-11 20:00:00,78.5,67.5,29.81,WNW,294,2.0,16.0,69,0.00,,,0.52,Wunderground v.1.15,2013-06-12 00:00:00,
2013-06-11 20:10:00,78.1,67.1,29.82,WNW,284,1.0,1.0,69,0.00,,,0.52,Wunderground v.1.15,2013-06-12 00:10:00,
2013-06-11 20:15:00,78.0,67.0,29.82,WSW,242,2.0,2.0,69,0.00,,,0.52,Wunderground v.1.15,2013-06-12 00:15:00,
2013-06-11 20:20:00,77.9,67.3,29.82,West,281,1.0,16.0,70,0.00,,,0.52,Wunderground v.1.15,2013-06-12 00:20:00,
2013-06-11 20:25:00,77.8,67.2,29.82,WNW,296,2.0,16.0,70,0.00,,,0.52,Wunderground v.1.15,2013-06-12 00:25:00,
2013-06-11 20:30:00,77.6,67.0,29.82,West,281,2.0,2.0,70,0.00,,,0.52,Wunderground v.1.15,2013-06-12 00:30:00,
2013-06-11 20:40:00,77.3,67.2,29.82,WNW,285,1.0,1.0,71,0.00,,,0.52,Wunderground v.1.15,2013-06-12 00:40:00,
2013-06-11 20:45:00,77.1,67.0,29.83,WNW,282,1.0,16.0,71,0.00,,,0.52,Wunderground v.1.15,2013-06-12 00:45:00,
2013-06-11 20:50:00,76.9,67.2,29.83,West,281,0.0,16.0,72,0.00,,,0.52,Wunderground v.1.15,2013-06-12 00:50:00,
2013-06-11 20:55:00,76.6,66.9,29.82,West,281,0.0,16.0,72,0.00,,,0.52,Wunderground v.1.15,2013-06-12 00:55:00,
2013-06-11 21:00:00,76.5,67.2,29.82,West,281,0.0,16.0,73,0.00,,,0.52,Wunderground v.1.15,2013-06-12 01:00:00,
2013-06-11 21:10:00,76.2,67.3,29.83,West,281,0.0,16.0,74,0.00,,,0.52,Wunderground v.1.15,2013-06-12 01:10:00,
2013-06-11 21:15:00,76.0,67.1,29.83,West,281,0.0,16.0,74,0.00,,,0.52,Wunderground v.1.15,2013-06-12 01:15:00,
2013-06-11 21:20:00,75.8,66.9,29.83,West,281,0.0,16.0,74,0.00,,,0.52,Wunderground v.1.15,2013-06-12 01:20:00,
2013-06-11 21:25:00,75.7,67.2,29.84,West,281,0.0,16.0,75,0.00,,,0.52,Wunderground v.1.15,2013-06-12 01:25:00,
2013-06-11 21:35:00,75.6,67.1,29.84,West,271,0.0,16.0,75,0.00,,,0.52,Wunderground v.1.15,2013-06-12 01:35:00,
2013-06-11 21:40:00,75.6,67.1,29.84,West,269,0.0,16.0,75,0.00,,,0.52,Wunderground v.1.15,2013-06-12 01:40:00,
2013-06-11 21:45:00,75.5,67.0,29.84,West,269,0.0,16.0,75,0.00,,,0.52,Wunderground v.1.15,2013-06-12 01:45:00,
2013-06-11 21:50:00,75.4,67.3,29.84,WSW,245,0.0,16.0,76,0.00,,,0.52,Wunderground v.1.15,2013-06-12 01:50:00,
2013-06-11 21:55:00,75.4,67.3,29.84,WSW,246,0.0,16.0,76,0.00,,,0.52,Wunderground v.1.15,2013-06-12 01:55:00,
2013-06-11 22:05:00,75.2,67.1,29.84,WSW,245,1.0,16.0,76,0.00,,,0.52,Wunderground v.1.15,2013-06-12 02:05:00,
2013-06-11 22:10:00,75.2,67.1,29.85,WSW,246,1.0,1.0,76,0.00,,,0.52,Wunderground v.1.15,2013-06-12 02:10:00,
2013-06-11 22:15:00,75.1,67.0,29.85,WSW,249,1.0,6.0,76,0.00,,,0.52,Wunderground v.1.15,2013-06-12 02:15:00,
2013-06-11 22:20:00,75.1,67.0,29.85,WSW,251,1.0,1.0,76,0.00,,,0.52,Wunderground v.1.15,2013-06-12 02:20:00,
2013-06-11 22:30:00,75.1,66.6,29.85,WSW,240,2.0,16.0,75,0.00,,,0.52,Wunderground v.1.15,2013-06-12 02:30:00,
2013-06-11 22:35:00,75.1,66.6,29.85,West,276,2.0,16.0,75,0.00,,,0.52,Wunderground v.1.15,2013-06-12 02:35:00,
2013-06-11 22:40:00,75.2,66.7,29.85,West,281,2.0,2.0,75,0.00,,,0.52,Wunderground v.1.15,2013-06-12 02:40:00,
2013-06-11 22:45:00,75.3,66.8,29.85,West,262,2.0,16.0,75,0.00,,,0.52,Wunderground v.1.15,2013-06-12 02:45:00,
2013-06-11 22:50:00,75.3,66.8,29.85,West,275,3.0,3.0,75,0.00,,,0.52,Wunderground v.1.15,2013-06-12 02:50:00,
2013-06-11 23:00:00,75.5,66.6,29.86,West,281,3.0,3.0,74,0.00,,,0.52,Wunderground v.1.15,2013-06-12 03:00:00,
2013-06-11 23:05:00,75.5,66.6,29.86,WSW,257,3.0,4.0,74,0.00,,,0.52,Wunderground v.1.15,2013-06-12 03:05:00,
2013-06-11 23:10:00,75.6,66.7,29.86,West,280,3.0,3.0,74,0.00,,,0.52,Wunderground v.1.15,2013-06-12 03:10:00,
2013-06-11 23:15:00,75.5,66.6,29.86,West,275,2.0,16.0,74,0.00,,,0.52,Wunderground v.1.15,2013-06-12 03:15:00,
2013-06-11 23:20:00,75.5,66.6,29.86,West,264,1.0,1.0,74,0.00,,,0.52,Wunderground v.1.15,2013-06-12 03:20:00,
2013-06-11 23:30:00,75.3,66.4,29.86,WSW,254,1.0,16.0,74,0.00,,,0.52,Wunderground v.1.15,2013-06-12 03:30:00,
2013-06-11 23:35:00,75.4,66.5,29.86,WNW,290,1.0,16.0,74,0.00,,,0.52,Wunderground v.1.15,2013-06-12 03:35:00,
2013-06-11 23:40:00,75.4,66.5,29.86,WNW,290,1.0,1.0,74,0.00,,,0.52,Wunderground v.1.15,2013-06-12 03:40:00,
2013-06-11 23:45:00,75.4,66.5,29.86,WSW,256,1.0,16.0,74,0.00,,,0.52,Wunderground v.1.15,2013-06-12 03:45:00,
2013-06-11 23:55:00,75.4,66.5,29.86,West,272,2.0,16.0,74,0.00,,,0.52,Wunderground v.1.15,2013-06-12 03:55:00,